sat.trackr.live / text

‹ back to catalog

STARLINK-4318

NORAD 53086 · 2022-077AV

PAYLOAD ACTIVE UNKNOWN

§ Identity

Operator
Country
US
Launch date
2022-07-11
Launch site
AFWTR
Launch vehicle
Mass (kg)
RCS (m²)

Purposes: comms

External: N2YO · Heavens-Above · Gunter

§ Orbital elements

Epoch: 2026-05-25T02:07:08.272416Z

Period
95.64 min
Inclination
97.4478°
Eccentricity
0.0001065
Mean motion
15.05609215 rev/d
Perigee alt
548.9 km
Apogee alt
550.4 km
Semi-major
6,927.8 km
B*
5.0345e-4
RAAN
325.1129°
Arg perigee
118.8690°
Mean anomaly
241.2644°
Rev number
21,241

§ Raw data

STARLINK-43181 53086U 22077AV  26145.08829019  .00007205  00000+0  50345-3 0  99982 53086  97.4478 325.1129 0001065 118.8690 241.2644 15.05609215212418

JSON: /api/v1/satellites/53086 · /tle

For live sub-satellite position, see the globe view (requires WebGL).

§ Visibility from observer

Set your observer location to see the next 7 days of passes ≥ 10°. The values pass through the URL so the page stays shareable.

No JS? Fill the form by hand. The geolocation button needs JavaScript.